TimeCST,TemperatureF,Dew PointF,Humidity,Sea Level PressureIn,VisibilityMPH,Wind Direction,Wind SpeedMPH,Gust SpeedMPH,PrecipitationIn,Events,Conditions,WindDirDegrees,DateUTC
12:53 AM,42.1,41.0,96,30.08,5.0,Calm,Calm,-,N/A,,Scattered Clouds,0,2012-11-05 06:53:00
1:53 AM,43.0,42.1,97,30.07,6.0,Calm,Calm,-,N/A,,Partly Cloudy,0,2012-11-05 07:53:00
2:53 AM,44.1,43.0,96,30.07,7.0,Calm,Calm,-,N/A,,Mostly Cloudy,0,2012-11-05 08:53:00
3:53 AM,45.0,44.1,97,30.06,6.0,Calm,Calm,-,N/A,,Mostly Cloudy,0,2012-11-05 09:53:00
4:53 AM,45.0,44.1,97,30.05,7.0,Calm,Calm,-,N/A,,Clear,0,2012-11-05 10:53:00
5:53 AM,45.0,44.1,97,30.05,7.0,Calm,Calm,-,N/A,,Mostly Cloudy,0,2012-11-05 11:53:00
6:53 AM,46.0,44.1,93,30.04,6.0,Calm,Calm,-,N/A,,Partly Cloudy,0,2012-11-05 12:53:00
7:34 AM,46.4,44.6,93,30.03,7.0,Calm,Calm,-,N/A,,Mostly Cloudy,0,2012-11-05 13:34:00
7:53 AM,48.0,46.0,93,30.04,8.0,Calm,Calm,-,N/A,,Overcast,0,2012-11-05 13:53:00
8:53 AM,50.0,46.0,86,30.05,10.0,Calm,Calm,-,N/A,,Overcast,0,2012-11-05 14:53:00
9:14 AM,51.8,46.4,82,30.03,10.0,Calm,Calm,-,N/A,,Scattered Clouds,0,2012-11-05 15:14:00
9:34 AM,53.6,44.6,72,30.03,10.0,Calm,Calm,-,N/A,,Mostly Cloudy,0,2012-11-05 15:34:00
9:53 AM,55.0,45.0,69,30.03,10.0,Calm,Calm,-,N/A,,Overcast,0,2012-11-05 15:53:00
10:48 AM,59.0,44.6,59,30.00,10.0,Variable,3.5,-,N/A,,Scattered Clouds,0,2012-11-05 16:48:00
10:53 AM,59.0,44.1,58,30.01,10.0,Calm,Calm,-,N/A,,Partly Cloudy,0,2012-11-05 16:53:00
11:53 AM,64.0,48.0,56,29.97,10.0,Variable,3.5,-,N/A,,Partly Cloudy,0,2012-11-05 17:53:00
12:53 PM,66.0,48.0,52,29.94,10.0,Calm,Calm,-,N/A,,Mostly Cloudy,0,2012-11-05 18:53:00
1:53 PM,69.1,45.0,42,29.92,10.0,NNW,9.2,-,N/A,,Mostly Cloudy,330,2012-11-05 19:53:00
2:53 PM,66.9,42.1,40,29.91,10.0,NW,8.1,20.7,N/A,,Partly Cloudy,320,2012-11-05 20:53:00
3:53 PM,66.0,42.1,42,29.92,10.0,NNW,6.9,-,N/A,,Clear,340,2012-11-05 21:53:00
4:53 PM,63.0,42.1,46,29.94,10.0,NNW,6.9,-,N/A,,Clear,330,2012-11-05 22:53:00
9:53 PM,48.9,39.9,71,30.04,10.0,Calm,Calm,-,N/A,,Partly Cloudy,0,2012-11-06 03:53:00
10:53 PM,48.0,39.9,74,30.02,10.0,Calm,Calm,-,N/A,,Scattered Clouds,0,2012-11-06 04:53:00